Tracking 30995 objects as of 5-Jul-2025
HD Live streaming from Space Station
objects crossing your sky now

STARLINK-30789

Track STARLINK-30789 now!
10-day predictions
STARLINK-30789 is classified as:


NORAD ID: 58166
Int'l Code: 2023-166S
Perigee: 481.6 km
Apogee: 483.2 km
Inclination: 53.2 °
Period: 94.1 minutes
Semi major axis: 6853 km
RCS: Unknown
Launch date: October 29, 2023
Source: United States (US)
Launch site: AIR FORCE WESTERN TEST RANGE (AFWTR)
Your satellite tracking list
Your tracking list is empty




NASA's NSSDC Master Catalog

Two Line Element Set (TLE):
1 58166U 23166S   25186.56748563 -.00000268  00000-0  30917-5 0  9992
2 58166  53.1600 287.4851 0001231  87.5984 272.5158 15.30185881 95347
Source of the keplerian elements: AFSPC